Time,TemperatureF,DewpointF,PressureIn,WindDirection,WindDirectionDegrees,WindSpeedMPH,WindSpeedGustMPH,Humidity,HourlyPrecipIn,Conditions,Clouds,dailyrainin,SolarRadiationWatts/m^2,SoftwareType,DateUTC
2013-06-01 00:01:00,47.0,39.0,-100.00,NNE,30,3.0,10.0,74,0.00,,,0.00,0.000000,,2013-06-01 07:01:00,
2013-06-01 00:22:00,47.0,39.0,-100.00,NNE,30,3.0,10.0,74,0.00,,,0.00,0.000000,,2013-06-01 07:22:00,
2013-06-01 00:32:00,47.0,39.0,-100.00,NNE,30,3.0,10.0,74,0.00,,,0.00,0.000000,,2013-06-01 07:32:00,
2013-06-01 00:42:00,47.0,39.0,-100.00,NNE,30,3.0,10.0,74,0.00,,,0.00,0.000000,,2013-06-01 07:42:00,
2013-06-01 00:52:00,47.0,39.0,-100.00,NNE,30,3.0,10.0,74,0.00,,,0.00,0.000000,,2013-06-01 07:52:00,
2013-06-01 01:01:00,48.0,42.0,-100.00,North,0,6.0,10.0,79,0.00,,,0.00,0.000000,,2013-06-01 08:01:00,
2013-06-01 01:22:00,48.0,42.0,-100.00,North,0,6.0,10.0,79,0.00,,,0.00,0.000000,,2013-06-01 08:22:00,
2013-06-01 01:32:00,48.0,42.0,-100.00,North,0,6.0,10.0,79,0.00,,,0.00,0.000000,,2013-06-01 08:32:00,
2013-06-01 01:42:00,48.0,42.0,-100.00,North,0,6.0,10.0,79,0.00,,,0.00,0.000000,,2013-06-01 08:42:00,
2013-06-01 01:52:00,48.0,42.0,-100.00,North,0,6.0,10.0,79,0.00,,,0.00,0.000000,,2013-06-01 08:52:00,
2013-06-01 02:01:00,47.0,40.0,-100.00,NNE,21,2.0,8.0,76,0.00,,,-99.99,0.000000,,2013-06-01 09:01:00,
2013-06-01 02:22:00,47.0,40.0,-100.00,NNE,21,2.0,8.0,76,0.00,,,-99.99,0.000000,,2013-06-01 09:22:00,
2013-06-01 02:33:00,47.0,40.0,-100.00,NNE,21,2.0,8.0,76,0.00,,,-99.99,0.000000,,2013-06-01 09:33:00,
2013-06-01 02:43:00,47.0,40.0,-100.00,NNE,21,2.0,8.0,76,0.00,,,-99.99,0.000000,,2013-06-01 09:43:00,
2013-06-01 02:53:00,47.0,40.0,-100.00,NNE,21,2.0,8.0,76,0.00,,,-99.99,0.000000,,2013-06-01 09:53:00,
2013-06-01 03:01:00,47.0,38.0,-100.00,NE,51,4.0,5.0,72,0.00,,,0.00,0.000000,,2013-06-01 10:01:00,
2013-06-01 03:22:00,47.0,38.0,-100.00,NE,51,4.0,5.0,72,0.00,,,0.00,0.000000,,2013-06-01 10:22:00,
2013-06-01 03:33:00,47.0,38.0,-100.00,NE,51,4.0,5.0,72,0.00,,,0.00,0.000000,,2013-06-01 10:33:00,
2013-06-01 03:42:00,47.0,38.0,-100.00,NE,51,4.0,5.0,72,0.00,,,0.00,0.000000,,2013-06-01 10:42:00,
2013-06-01 03:52:00,47.0,38.0,-100.00,NE,51,4.0,5.0,72,0.00,,,0.00,0.000000,,2013-06-01 10:52:00,
2013-06-01 04:01:00,48.0,40.0,-100.00,ENE,77,3.0,5.0,75,0.00,,,0.00,0.000000,,2013-06-01 11:01:00,
2013-06-01 04:22:00,48.0,40.0,-100.00,ENE,77,3.0,5.0,75,0.00,,,0.00,0.000000,,2013-06-01 11:22:00,
2013-06-01 04:33:00,48.0,40.0,-100.00,ENE,77,3.0,5.0,75,0.00,,,0.00,0.000000,,2013-06-01 11:33:00,
2013-06-01 04:42:00,48.0,40.0,-100.00,ENE,77,3.0,5.0,75,0.00,,,0.00,0.000000,,2013-06-01 11:42:00,
2013-06-01 04:52:00,48.0,40.0,-100.00,ENE,77,3.0,5.0,75,0.00,,,0.00,0.000000,,2013-06-01 11:52:00,
2013-06-01 05:01:00,48.0,41.0,-100.00,NNE,13,1.0,4.0,78,0.00,,,0.00,0.000000,,2013-06-01 12:01:00,
2013-06-01 05:22:00,48.0,41.0,-100.00,NNE,13,1.0,4.0,78,0.00,,,0.00,0.000000,,2013-06-01 12:22:00,
2013-06-01 05:32:00,48.0,41.0,-100.00,NNE,13,1.0,4.0,78,0.00,,,0.00,0.000000,,2013-06-01 12:32:00,
2013-06-01 05:42:00,48.0,41.0,-100.00,NNE,13,1.0,4.0,78,0.00,,,0.00,0.000000,,2013-06-01 12:42:00,
2013-06-01 05:52:00,48.0,41.0,-100.00,NNE,13,1.0,4.0,78,0.00,,,0.00,0.000000,,2013-06-01 12:52:00,
2013-06-01 06:01:00,48.0,40.0,-100.00,SSW,198,1.0,2.0,75,0.00,,,0.00,0.000000,,2013-06-01 13:01:00,
2013-06-01 06:22:00,48.0,40.0,-100.00,SSW,198,1.0,2.0,75,0.00,,,0.00,0.000000,,2013-06-01 13:22:00,
2013-06-01 06:32:00,48.0,40.0,-100.00,SSW,198,1.0,2.0,75,0.00,,,0.00,0.000000,,2013-06-01 13:32:00,
2013-06-01 06:42:00,48.0,40.0,-100.00,SSW,198,1.0,2.0,75,0.00,,,0.00,0.000000,,2013-06-01 13:42:00,
2013-06-01 06:52:00,48.0,40.0,-100.00,SSW,198,1.0,2.0,75,0.00,,,0.00,0.000000,,2013-06-01 13:52:00,
2013-06-01 07:01:00,47.0,39.0,-100.00,South,177,1.0,4.0,73,0.00,,,0.00,5.000000,,2013-06-01 14:01:00,
2013-06-01 07:21:00,47.0,39.0,-100.00,South,177,1.0,4.0,73,0.00,,,0.00,5.000000,,2013-06-01 14:21:00,
2013-06-01 07:32:00,47.0,39.0,-100.00,South,177,1.0,4.0,73,0.00,,,0.00,5.000000,,2013-06-01 14:32:00,
2013-06-01 07:42:00,47.0,39.0,-100.00,South,177,1.0,4.0,73,0.00,,,0.00,5.000000,,2013-06-01 14:42:00,
2013-06-01 07:52:00,47.0,39.0,-100.00,South,177,1.0,4.0,73,0.00,,,0.00,5.000000,,2013-06-01 14:52:00,
2013-06-01 08:01:00,48.0,39.0,-100.00,South,175,2.0,6.0,71,0.00,,,0.00,47.000000,,2013-06-01 15:01:00,
2013-06-01 08:22:00,48.0,39.0,-100.00,South,175,2.0,6.0,71,0.00,,,0.00,47.000000,,2013-06-01 15:22:00,
2013-06-01 08:33:00,48.0,39.0,-100.00,South,175,2.0,6.0,71,0.00,,,0.00,47.000000,,2013-06-01 15:33:00,
2013-06-01 08:43:00,48.0,39.0,-100.00,South,175,2.0,6.0,71,0.00,,,0.00,47.000000,,2013-06-01 15:43:00,
2013-06-01 08:53:00,48.0,39.0,-100.00,South,175,2.0,6.0,71,0.00,,,0.00,47.000000,,2013-06-01 15:53:00,
2013-06-01 09:01:00,51.0,42.0,-100.00,South,175,4.0,7.0,71,0.00,,,0.00,135.000000,,2013-06-01 16:01:00,
2013-06-01 09:23:00,51.0,42.0,-100.00,South,175,4.0,7.0,71,0.00,,,0.00,135.000000,,2013-06-01 16:23:00,
2013-06-01 09:33:00,51.0,42.0,-100.00,South,175,4.0,7.0,71,0.00,,,0.00,135.000000,,2013-06-01 16:33:00,
2013-06-01 09:42:00,51.0,42.0,-100.00,South,175,4.0,7.0,71,0.00,,,0.00,135.000000,,2013-06-01 16:42:00,
2013-06-01 09:52:00,51.0,42.0,-100.00,South,175,4.0,7.0,71,0.00,,,0.00,135.000000,,2013-06-01 16:52:00,
2013-06-01 10:01:00,50.0,42.0,-100.00,South,187,4.0,8.0,75,0.00,,,0.00,260.000000,,2013-06-01 17:01:00,
2013-06-01 10:22:00,50.0,42.0,-100.00,South,187,4.0,8.0,75,0.00,,,0.00,260.000000,,2013-06-01 17:22:00,
2013-06-01 10:32:00,50.0,42.0,-100.00,South,187,4.0,8.0,75,0.00,,,0.00,260.000000,,2013-06-01 17:32:00,
2013-06-01 10:42:00,50.0,42.0,-100.00,South,187,4.0,8.0,75,0.00,,,0.00,260.000000,,2013-06-01 17:42:00,
2013-06-01 10:52:00,50.0,42.0,-100.00,South,187,4.0,8.0,75,0.00,,,0.00,260.000000,,2013-06-01 17:52:00,
2013-06-01 11:01:00,51.0,45.0,-100.00,SSW,198,6.0,11.0,79,0.00,,,0.00,393.000000,,2013-06-01 18:01:00,
2013-06-01 11:22:00,51.0,45.0,-100.00,SSW,198,6.0,11.0,79,0.00,,,0.00,393.000000,,2013-06-01 18:22:00,
2013-06-01 11:32:00,51.0,45.0,-100.00,SSW,198,6.0,11.0,79,0.00,,,0.00,393.000000,,2013-06-01 18:32:00,
2013-06-01 11:42:00,51.0,45.0,-100.00,SSW,198,6.0,11.0,79,0.00,,,0.00,393.000000,,2013-06-01 18:42:00,
2013-06-01 11:52:00,51.0,45.0,-100.00,SSW,198,6.0,11.0,79,0.00,,,0.00,393.000000,,2013-06-01 18:52:00,
2013-06-01 12:21:00,51.0,42.0,-100.00,SSW,197,5.0,12.0,71,0.00,,,0.00,534.000000,,2013-06-01 19:21:00,
2013-06-01 12:32:00,51.0,42.0,-100.00,SSW,197,5.0,12.0,71,0.00,,,0.00,534.000000,,2013-06-01 19:32:00,
2013-06-01 13:01:00,56.0,44.0,-100.00,SW,224,7.0,11.0,63,-99.99,,,0.00,776.000000,,2013-06-01 20:01:00,
2013-06-01 13:22:00,56.0,44.0,-100.00,SW,224,7.0,11.0,63,-99.99,,,0.00,776.000000,,2013-06-01 20:22:00,
2013-06-01 13:32:00,56.0,44.0,-100.00,SW,224,7.0,11.0,63,-99.99,,,0.00,776.000000,,2013-06-01 20:32:00,
2013-06-01 13:42:00,56.0,44.0,-100.00,SW,224,7.0,11.0,63,-99.99,,,0.00,776.000000,,2013-06-01 20:42:00,
2013-06-01 13:52:00,56.0,44.0,-100.00,SW,224,7.0,11.0,63,-99.99,,,0.00,776.000000,,2013-06-01 20:52:00,
2013-06-01 14:01:00,58.0,43.0,-100.00,SSW,212,6.0,14.0,58,0.00,,,0.00,868.000000,,2013-06-01 21:01:00,
2013-06-01 14:22:00,58.0,43.0,-100.00,SSW,212,6.0,14.0,58,0.00,,,0.00,868.000000,,2013-06-01 21:22:00,
2013-06-01 14:33:00,58.0,43.0,-100.00,SSW,212,6.0,14.0,58,0.00,,,0.00,868.000000,,2013-06-01 21:33:00,
2013-06-01 14:43:00,58.0,43.0,-100.00,SSW,212,6.0,14.0,58,0.00,,,0.00,868.000000,,2013-06-01 21:43:00,
2013-06-01 14:53:00,58.0,43.0,-100.00,SSW,212,6.0,14.0,58,0.00,,,0.00,868.000000,,2013-06-01 21:53:00,
2013-06-01 15:01:00,61.0,48.0,-100.00,West,264,4.0,13.0,62,0.00,,,0.00,785.000000,,2013-06-01 22:01:00,
2013-06-01 15:23:00,61.0,48.0,-100.00,West,264,4.0,13.0,62,0.00,,,0.00,785.000000,,2013-06-01 22:23:00,
2013-06-01 15:33:00,61.0,48.0,-100.00,West,264,4.0,13.0,62,0.00,,,0.00,785.000000,,2013-06-01 22:33:00,
2013-06-01 15:42:00,61.0,48.0,-100.00,West,264,4.0,13.0,62,0.00,,,0.00,785.000000,,2013-06-01 22:42:00,
2013-06-01 15:53:00,61.0,48.0,-100.00,West,264,4.0,13.0,62,0.00,,,0.00,785.000000,,2013-06-01 22:53:00,
2013-06-01 16:01:00,63.0,47.0,-100.00,ESE,105,6.0,14.0,56,0.00,,,0.00,672.000000,,2013-06-01 23:01:00,
2013-06-01 16:22:00,63.0,47.0,-100.00,ESE,105,6.0,14.0,56,0.00,,,0.00,672.000000,,2013-06-01 23:22:00,
2013-06-01 16:32:00,63.0,47.0,-100.00,ESE,105,6.0,14.0,56,0.00,,,0.00,672.000000,,2013-06-01 23:32:00,
2013-06-01 16:42:00,63.0,47.0,-100.00,ESE,105,6.0,14.0,56,0.00,,,0.00,672.000000,,2013-06-01 23:42:00,
2013-06-01 16:52:00,63.0,47.0,-100.00,ESE,105,6.0,14.0,56,0.00,,,0.00,672.000000,,2013-06-01 23:52:00,
2013-06-01 17:01:00,61.0,47.0,-100.00,WNW,285,6.0,15.0,60,0.00,,,0.00,649.000000,,2013-06-02 00:01:00,
2013-06-01 17:22:00,61.0,47.0,-100.00,WNW,285,6.0,15.0,60,0.00,,,0.00,649.000000,,2013-06-02 00:22:00,
2013-06-01 17:32:00,61.0,47.0,-100.00,WNW,285,6.0,15.0,60,0.00,,,0.00,649.000000,,2013-06-02 00:32:00,
2013-06-01 17:42:00,61.0,47.0,-100.00,WNW,285,6.0,15.0,60,0.00,,,0.00,649.000000,,2013-06-02 00:42:00,
2013-06-01 17:52:00,61.0,47.0,-100.00,WNW,285,6.0,15.0,60,0.00,,,0.00,649.000000,,2013-06-02 00:52:00,
2013-06-01 18:01:00,59.0,48.0,-100.00,West,267,9.0,18.0,66,0.00,,,0.00,417.000000,,2013-06-02 01:01:00,
2013-06-01 18:22:00,59.0,48.0,-100.00,West,267,9.0,18.0,66,0.00,,,0.00,417.000000,,2013-06-02 01:22:00,
2013-06-01 18:32:00,59.0,48.0,-100.00,West,267,9.0,18.0,66,0.00,,,0.00,417.000000,,2013-06-02 01:32:00,
2013-06-01 18:42:00,59.0,48.0,-100.00,West,267,9.0,18.0,66,0.00,,,0.00,417.000000,,2013-06-02 01:42:00,
2013-06-01 18:52:00,59.0,48.0,-100.00,West,267,9.0,18.0,66,0.00,,,0.00,417.000000,,2013-06-02 01:52:00,
2013-06-01 19:01:00,62.0,48.0,-100.00,ESE,103,7.0,14.0,60,0.00,,,0.00,430.000000,,2013-06-02 02:01:00,
2013-06-01 19:22:00,62.0,48.0,-100.00,ESE,103,7.0,14.0,60,0.00,,,0.00,430.000000,,2013-06-02 02:22:00,
2013-06-01 19:32:00,62.0,48.0,-100.00,ESE,103,7.0,14.0,60,0.00,,,0.00,430.000000,,2013-06-02 02:32:00,
2013-06-01 19:42:00,62.0,48.0,-100.00,ESE,103,7.0,14.0,60,0.00,,,0.00,430.000000,,2013-06-02 02:42:00,
2013-06-01 19:52:00,62.0,48.0,-100.00,ESE,103,7.0,14.0,60,0.00,,,0.00,430.000000,,2013-06-02 02:52:00,
2013-06-01 20:01:00,60.0,48.0,-100.00,West,270,8.0,14.0,65,0.00,,,0.00,415.000000,,2013-06-02 03:01:00,
2013-06-01 20:22:00,60.0,48.0,-100.00,West,270,8.0,14.0,65,0.00,,,0.00,415.000000,,2013-06-02 03:22:00,
2013-06-01 20:33:00,60.0,48.0,-100.00,West,270,8.0,14.0,65,0.00,,,0.00,415.000000,,2013-06-02 03:33:00,
2013-06-01 20:43:00,60.0,48.0,-100.00,West,270,8.0,14.0,65,0.00,,,0.00,415.000000,,2013-06-02 03:43:00,
2013-06-01 20:53:00,60.0,48.0,-100.00,West,270,8.0,14.0,65,0.00,,,0.00,415.000000,,2013-06-02 03:53:00,
2013-06-01 21:01:00,58.0,49.0,-100.00,West,260,6.0,12.0,72,0.00,,,0.00,211.000000,,2013-06-02 04:01:00,
2013-06-01 21:23:00,58.0,49.0,-100.00,West,260,6.0,12.0,72,0.00,,,0.00,211.000000,,2013-06-02 04:23:00,
2013-06-01 21:33:00,58.0,49.0,-100.00,West,260,6.0,12.0,72,0.00,,,0.00,211.000000,,2013-06-02 04:33:00,
2013-06-01 21:42:00,58.0,49.0,-100.00,West,260,6.0,12.0,72,0.00,,,0.00,211.000000,,2013-06-02 04:42:00,
2013-06-01 21:53:00,58.0,49.0,-100.00,West,260,6.0,12.0,72,0.00,,,0.00,211.000000,,2013-06-02 04:53:00,
2013-06-01 22:01:00,51.0,47.0,-100.00,WSW,258,10.0,13.0,87,0.00,,,0.00,42.000000,,2013-06-02 05:01:00,
2013-06-01 22:22:00,51.0,47.0,-100.00,WSW,258,10.0,13.0,87,0.00,,,0.00,42.000000,,2013-06-02 05:22:00,
2013-06-01 22:32:00,51.0,47.0,-100.00,WSW,258,10.0,13.0,87,0.00,,,0.00,42.000000,,2013-06-02 05:32:00,
2013-06-01 22:42:00,51.0,47.0,-100.00,WSW,258,10.0,13.0,87,0.00,,,0.00,42.000000,,2013-06-02 05:42:00,
2013-06-01 22:52:00,51.0,47.0,-100.00,WSW,258,10.0,13.0,87,0.00,,,0.00,42.000000,,2013-06-02 05:52:00,
2013-06-01 23:01:00,51.0,49.0,-100.00,West,280,9.0,13.0,94,0.00,,,0.00,0.000000,,2013-06-02 06:01:00,
2013-06-01 23:21:00,51.0,49.0,-100.00,West,280,9.0,13.0,94,0.00,,,0.00,0.000000,,2013-06-02 06:21:00,
2013-06-01 23:32:00,51.0,49.0,-100.00,West,280,9.0,13.0,94,0.00,,,0.00,0.000000,,2013-06-02 06:32:00,
2013-06-01 23:42:00,51.0,49.0,-100.00,West,280,9.0,13.0,94,0.00,,,0.00,0.000000,,2013-06-02 06:42:00,
2013-06-01 23:52:00,51.0,49.0,-100.00,West,280,9.0,13.0,94,0.00,,,0.00,0.000000,,2013-06-02 06:52:00,